This is the latest recevied weather packets stored in our database for station/object KC0SIQ-13. If no packets are shown the sender has not sent any weather packets the latest 10 day(s).
| Time | Temp. | Humidity | Pressure | Rain* | Wind** | Luminosity | Snow |
|---|---|---|---|---|---|---|---|
| 1777861177 | 16.11° C | 33% | 1008.1 hPa | 0 mm | - | 0 W/m² | - |
| 1777860875 | 16.67° C | 34% | 1008.2 hPa | 0 mm | - | 0 W/m² | - |
| 1777860572 | 17.22° C | 32% | 1008 hPa | 0 mm | - | 0 W/m² | - |
| 1777860268 | 17.22° C | 31% | 1008 hPa | 0 mm | - | 0 W/m² | - |
| 1777859965 | 17.78° C | 30% | 1008.1 hPa | 0 mm | - | 0 W/m² | - |
| 1777859661 | 18.33° C | 30% | 1008.1 hPa | 0 mm | - | 2 W/m² | - |
| 1777859357 | 18.89° C | 28% | 1008.2 hPa | 0 mm | - | 4 W/m² | - |
| 1777859053 | 19.44° C | 27% | 1008.2 hPa | 0 mm | - | 7 W/m² | - |
| 1777858750 | 19.44° C | 25% | 1008.1 hPa | 0 mm | - | 10 W/m² | - |
| 1777858449 | 20° C | 25% | 1007.7 hPa | 0 mm | - | 13 W/m² | - |
| 1777858144 | 20° C | 25% | 1008.2 hPa | 0 mm | - | 13 W/m² | - |
| 1777857843 | 20° C | 25% | 1008 hPa | 0 mm | - | 15 W/m² | - |
| 1777857540 | 20° C | 25% | 1008.1 hPa | 0 mm | - | 19 W/m² | - |
| 1777857237 | 20° C | 26% | 1007.8 hPa | 0 mm | - | 24 W/m² | - |
| 1777856932 | 20° C | 25% | 1008.3 hPa | 0 mm | - | 23 W/m² | - |
| 1777856628 | 20° C | 25% | 1008.2 hPa | 0 mm | - | 23 W/m² | - |
| 1777856325 | 20° C | 25% | 1008.2 hPa | 0 mm | - | 21 W/m² | - |
| 1777856022 | 20.56° C | 24% | 1008.4 hPa | 0 mm | - | 23 W/m² | - |
| 1777855719 | 20.56° C | 24% | 1008.1 hPa | 0 mm | - | 24 W/m² | - |
| 1777855417 | 20.56° C | 23% | 1008.4 hPa | 0 mm | - | 28 W/m² | - |
| 1777855113 | 21.11° C | 22% | 1008.3 hPa | 0 mm | - | 35 W/m² | - |
| 1777854810 | 21.11° C | 23% | 1008.2 hPa | 0 mm | - | 42 W/m² | - |
| 1777854507 | 21.11° C | 23% | 1008.3 hPa | 0 mm | - | 46 W/m² | - |
| 1777854204 | 21.11° C | 24% | 1008.4 hPa | 0 mm | - | 50 W/m² | - |
| 1777853901 | 21.11° C | 22% | 1008.4 hPa | 0 mm | - | 56 W/m² | - |
* Rain latest hour (hover to see other rain measurements)
** Current wind speed in m/s (hover to see current wind gust speed)